[[{"header":{"parameterUnit":"m.s-1","parameterCategory":1,"la1":30.2991,"la2":30.254,"lo1":-89.0895,"lo2":-89.0444,"dy":0.0017,"dx":0.0017,"nx":28,"ny":28,"refTime":"2023-04-29T21:00:00:Z","depth":0,"parameterNumber":2,"parameterNumberName":"U-component_of_WINDS"},"data":[0,0,0,0,0,0,0,0,0,0,0,0,0,0,0,0,0,0,0,0,0,0,0,0,0,0,0,0,0,0,0,0,0,0,0,0,0,0,0,0,0,0,0,0,0,0,0,0,0,0,0,0,0,0,0,0,0,0,5.467,5.4672,0,5.4857,5.4859,5.4861,5.4779,5.4775,5.477,5.4766,5.4962,5.4972,5.4981,0,0,0,0,0,0,0,0,0,0,0,0,0,5.4244,5.4252,5.467,5.4672,5.4674,5.4857,5.4859,5.4862,5.478,5.4774,5.4769,5.4764,5.4959,5.497,5.4982,0,0,0,0,0,0,0,0,0,0,0,0,0,5.443,5.4255,5.4669,5.4655,5.4656,5.4856,5.4859,5.4863,5.4781,5.4774,5.4767,5.4761,5.4955,5.4969,5.4983,5.521,0,0,5.5027,5.5033,0,0,0,0,0,0,0,0,5.4419,5.4446,5.4655,5.4657,5.4658,5.4788,5.4781,5.4979,5.4783,5.4734,5.4766,5.4758,5.491,5.4928,5.4978,5.5219,5.5227,5.5028,5.5037,5.5043,5.5047,0,0,0,0,0,0,0,5.4407,5.4437,5.4744,5.4658,5.466,5.4641,5.4659,5.4818,5.4859,5.4738,5.4732,5.4755,5.4909,5.4965,5.4982,5.523,5.5028,5.5041,5.5049,5.5055,5.5663,5.567,0,0,0,0,0,0,5.4393,5.4427,5.4738,5.475,5.4519,5.4654,5.4675,5.4753,5.4857,5.4866,5.4761,5.4751,5.4944,5.4966,5.4989,5.5258,5.5043,5.5056,5.5065,5.5656,5.5665,5.5673,0,0,0,0,0,0,5.4384,5.4422,5.473,5.4587,5.4625,5.4669,5.4757,5.476,5.4815,5.4874,5.4881,5.4809,5.4939,5.4969,5.5154,5.5264,5.5063,5.5076,5.5647,5.5658,5.5669,5.58,0,0,0,0,0,0,5.4373,5.4419,5.4505,5.4589,5.4632,5.4893,5.4764,5.4769,5.4839,5.4828,5.4922,5.4931,5.4936,5.5133,5.5169,5.528,5.5087,5.5637,5.5652,5.5665,5.5786,5.5814,5.5839,0,0,0,0,0,5.4358,5.4536,5.451,5.4548,5.4741,5.4899,5.4924,5.4925,5.4849,5.4935,5.4973,5.4928,5.5246,5.5153,5.5192,5.5309,5.563,5.5648,5.5664,5.5774,5.5809,5.5838,0,0,0,0,0,0,5.4466,5.4547,5.4519,5.473,5.4808,5.4885,5.4994,5.4962,5.5065,5.505,5.5048,5.507,5.5262,5.5304,5.5199,5.5532,5.5427,5.5452,5.5497,5.553,5.5556,5.5541,5.5099,0,0,0,0,0,5.4514,5.4635,5.47,5.488,5.492,5.4951,5.502,5.5014,5.5095,5.5128,5.5179,5.5261,5.5379,5.5458,5.557,5.5792,5.581,5.5892,5.5918,5.5939,5.5961,5.6079,5.6115,5.5729,5.5729,5.5728,0,0,5.4616,5.4675,5.4751,5.4903,5.4963,5.5088,5.4979,5.5117,5.521,5.515,5.5327,5.5368,5.5459,5.5663,5.5755,5.5704,5.6072,5.5961,5.5978,5.5988,5.61,5.6137,5.6169,5.5741,5.5738,5.5737,0,0,5.4863,5.4921,5.5076,5.5137,5.5228,5.5247,5.5284,5.5366,5.539,5.5567,5.5524,5.5635,5.5839,5.5905,5.5965,5.6236,5.6197,5.6273,5.641,5.6525,5.6555,5.6582,5.6676,5.6711,5.6295,5.6295,5.6295,0,5.4978,5.5164,5.516,5.53,5.5367,5.5317,5.5473,5.5533,5.5658,5.5705,5.5646,5.5899,5.5957,5.6175,5.624,5.6292,5.6333,5.6262,5.6551,5.6578,5.6603,5.6693,5.6729,5.6304,5.6303,5.6302,5.6301,0,5.5299,5.5429,5.5543,5.5661,5.5741,5.589,5.5908,5.599,5.5977,5.6002,5.6182,5.625,5.6374,5.6425,5.6415,5.6641,5.6606,5.655,5.6443,5.6648,5.6732,5.6767,5.6316,5.6313,5.631,5.6308,0,0,5.5621,5.5733,5.5775,5.5827,5.5922,5.6023,5.6168,5.6287,5.6356,5.6444,5.6564,5.6738,5.6685,5.6753,5.675,5.6851,5.7058,5.6781,5.6783,5.6828,5.7308,5.7348,5.7388,5.7033,5.7039,5.7045,5.7299,0,5.5874,5.6127,5.6126,5.636,5.6478,5.6431,5.6557,5.663,5.6657,5.6762,5.6793,5.6914,5.6836,5.6877,5.6975,5.7012,5.7153,5.6994,5.7145,5.715,5.7121,5.7433,5.7476,5.7713,5.7333,5.7338,5.7342,0,5.6203,5.6298,5.6542,5.6618,5.6668,5.6781,5.6888,5.699,5.7071,5.7083,5.7159,5.7139,5.7286,5.7177,5.7379,5.727,5.7332,5.736,5.7369,5.7381,5.7257,5.7452,5.7789,5.7824,5.7395,5.739,5.7387,0,5.641,5.6599,5.6769,5.6815,5.6909,5.6989,5.7032,5.7106,5.7176,5.7271,5.7316,5.7428,5.7489,5.7576,5.7587,5.7506,5.779,5.7682,5.7804,5.7804,5.7864,5.786,5.8215,5.7908,5.7908,5.7907,5.7906,0,5.6692,5.6843,5.6863,5.6967,5.7134,5.7133,5.7299,5.7335,5.7401,5.7511,5.7478,5.7583,5.7591,5.7699,5.7709,5.7874,5.7903,5.7916,5.7917,5.7918,5.7916,5.7957,5.794,5.7917,5.7915,5.7913,5.7911,0,5.6951,5.6971,5.7152,5.7224,5.7246,5.7366,5.7428,5.7528,5.7551,5.7691,5.7724,5.7761,5.7886,5.7905,5.8053,5.8059,5.8256,5.824,5.8227,5.8225,5.8345,5.8332,5.8736,5.8788,5.845,5.8454,5.8456,0,5.7128,5.7242,5.7326,5.7397,5.7443,5.7558,5.7629,5.7632,5.7707,5.7806,5.7894,5.8015,5.8111,5.8313,5.8353,5.8465,5.8451,5.8585,5.8468,5.8464,5.845,5.8442,5.8452,5.8607,5.8611,5.8614,5.8616,0,5.744,5.7443,5.7546,5.7652,5.7737,5.7821,5.7901,5.7961,5.7974,5.806,5.8186,5.8261,5.8409,5.8529,5.864,5.8684,5.8653,5.8653,5.8686,5.8688,5.8675,5.8681,5.8286,5.8643,5.864,5.8638,5.8637,5.8636,5.7662,5.776,5.7833,5.7948,5.8007,5.8082,5.8178,5.8212,5.8316,5.8436,5.8432,5.857,5.8646,5.879,5.8843,5.895,5.8907,5.8957,5.8969,5.898,5.899,5.8659,5.8971,5.897,5.897,5.8969,5.8968,0,5.7969,5.8013,5.8119,5.8229,5.832,5.828,5.8366,5.8444,5.8565,5.8638,5.8733,5.8876,5.8992,5.9041,5.9154,5.9231,5.9219,5.926,5.9254,5.9264,5.9024,5.8982,5.9268,5.9268,5.9268,5.9268,5.9267,5.9267,5.8139,5.8302,5.8314,5.8506,5.855,5.8683,5.8734,5.8802,5.886,5.9021,5.9116,5.9146,5.921,5.9327,5.9431,5.9442,5.9484,5.9532,5.9537,5.9312,5.9281,5.9252,5.9213,5.9542,5.9542,5.9767,5.9769,5.977]},{"header":{"parameterUnit":"m.s-1","parameterCategory":1,"la1":30.2991,"la2":30.254,"lo1":-89.0895,"lo2":-89.0444,"dy":0.0017,"dx":0.0017,"nx":28,"ny":28,"refTime":"2023-04-29T21:00:00:Z","depth":0,"parameterNumber":3,"parameterNumberName":"V-component_of_WINDS"},"data":[0,0,0,0,0,0,0,0,0,0,0,0,0,0,0,0,0,0,0,0,0,0,0,0,0,0,0,0,0,0,0,0,0,0,0,0,0,0,0,0,0,0,0,0,0,0,0,0,0,0,0,0,0,0,0,0,0,0,0.6954,0.6955,0,0.7001,0.7001,0.7002,0.6967,0.6966,0.6964,0.6963,0.7012,0.7015,0.7018,0,0,0,0,0,0,0,0,0,0,0,0,0,0.6836,0.6838,0.6954,0.6955,0.6955,0.7001,0.7001,0.7002,0.6967,0.6966,0.6964,0.6962,0.7011,0.7015,0.7018,0,0,0,0,0,0,0,0,0,0,0,0,0,0.6885,0.6839,0.6954,0.6943,0.6943,0.7001,0.7001,0.7002,0.6968,0.6966,0.6963,0.6961,0.701,0.7014,0.7018,0.7089,0,0,0.7031,0.7033,0,0,0,0,0,0,0,0,0.6883,0.689,0.6944,0.6944,0.6944,0.6976,0.6978,0.7031,0.6968,0.6958,0.6963,0.696,0.7002,0.7007,0.7021,0.7092,0.7094,0.7031,0.7034,0.7035,0.7037,0,0,0,0,0,0,0,0.6879,0.6887,0.6973,0.6945,0.6945,0.6937,0.6941,0.6988,0.6993,0.6959,0.6957,0.6963,0.7001,0.7017,0.7021,0.7095,0.7031,0.7035,0.7037,0.7039,0.7225,0.7228,0,0,0,0,0,0,0.6877,0.6885,0.6971,0.6974,0.6907,0.6941,0.6946,0.6968,0.6992,0.6993,0.6965,0.6961,0.7011,0.7017,0.7023,0.7108,0.7035,0.7039,0.7042,0.7223,0.7226,0.7228,0,0,0,0,0,0,0.6874,0.6885,0.6969,0.6929,0.6939,0.6945,0.697,0.697,0.6985,0.6996,0.6997,0.6979,0.7009,0.7017,0.7073,0.7109,0.7041,0.7045,0.722,0.7224,0.7227,0.7278,0,0,0,0,0,0,0.6871,0.6884,0.6911,0.693,0.6941,0.7018,0.6972,0.6973,0.6992,0.6988,0.701,0.7011,0.7008,0.7067,0.7077,0.7113,0.7048,0.7217,0.7222,0.7226,0.7273,0.7283,0.7291,0,0,0,0,0,0.6867,0.6924,0.6913,0.6923,0.6975,0.702,0.7027,0.7022,0.6995,0.7022,0.7029,0.7011,0.7103,0.7073,0.7084,0.7122,0.7214,0.722,0.7226,0.7269,0.7281,0.7291,0,0,0,0,0,0,0.691,0.6926,0.6914,0.6979,0.6998,0.7015,0.7049,0.7035,0.7063,0.7058,0.705,0.7055,0.7113,0.7123,0.7089,0.7191,0.7154,0.7163,0.7183,0.7195,0.7204,0.7201,0.7051,0,0,0,0,0,0.6927,0.6963,0.6974,0.703,0.7041,0.7043,0.7063,0.7056,0.7077,0.7085,0.7096,0.7117,0.715,0.7173,0.7204,0.7273,0.7278,0.7305,0.7314,0.7321,0.7329,0.7365,0.7378,0.7247,0.7247,0.7247,0,0,0.6963,0.6976,0.6999,0.704,0.7054,0.7091,0.7051,0.7091,0.7119,0.7092,0.7145,0.7153,0.7176,0.7238,0.7266,0.7248,0.7365,0.7328,0.7334,0.7338,0.7372,0.7385,0.7396,0.7251,0.725,0.7249,0,0,0.7048,0.7061,0.7109,0.7124,0.7146,0.7147,0.7158,0.7176,0.718,0.7233,0.7213,0.7246,0.7304,0.732,0.7337,0.7425,0.7409,0.7436,0.7484,0.752,0.753,0.7539,0.7571,0.7582,0.7443,0.7443,0.7443,0,0.709,0.7144,0.7135,0.7177,0.7196,0.7171,0.722,0.7235,0.7267,0.728,0.7259,0.733,0.7344,0.741,0.7431,0.7445,0.7458,0.7434,0.7529,0.7538,0.7546,0.7577,0.7589,0.7446,0.7446,0.7445,0.7445,0,0.7195,0.7233,0.7269,0.7299,0.7321,0.7366,0.7364,0.7388,0.7379,0.7382,0.7436,0.7451,0.7484,0.7499,0.7492,0.7564,0.7552,0.753,0.7493,0.7562,0.7591,0.7602,0.745,0.7449,0.7448,0.7448,0,0,0.731,0.7333,0.7347,0.736,0.7382,0.7411,0.7454,0.7486,0.7507,0.7529,0.7565,0.7614,0.7594,0.7612,0.7606,0.7637,0.7706,0.7611,0.7611,0.7629,0.7786,0.7803,0.7817,0.7695,0.7697,0.7699,0.7785,0,0.7396,0.7472,0.7464,0.7536,0.7571,0.7547,0.7585,0.7603,0.7606,0.7636,0.764,0.7675,0.7645,0.7656,0.7685,0.7691,0.7738,0.7685,0.7729,0.7731,0.7726,0.7832,0.785,0.7931,0.7796,0.7798,0.7799,0,0.7507,0.7532,0.7607,0.7622,0.7637,0.7671,0.7699,0.7728,0.7747,0.7747,0.7767,0.7755,0.7798,0.7759,0.7819,0.7783,0.78,0.7806,0.7809,0.7814,0.777,0.7841,0.7956,0.7969,0.7816,0.7815,0.7814,0,0.7584,0.7636,0.7688,0.77,0.7719,0.7743,0.7753,0.7769,0.7788,0.7813,0.7826,0.7855,0.7872,0.7895,0.7891,0.7863,0.7952,0.7913,0.7954,0.7954,0.7975,0.7974,0.8097,0.7985,0.7985,0.7984,0.7984,0,0.7681,0.7728,0.7722,0.7755,0.7806,0.7797,0.7849,0.7855,0.7869,0.7902,0.7883,0.7914,0.7906,0.7937,0.7934,0.7984,0.7992,0.7993,0.7992,0.7996,0.7996,0.8008,0.8003,0.7988,0.7987,0.7986,0.7986,0,0.7777,0.7775,0.783,0.7843,0.7847,0.7885,0.7896,0.7926,0.7927,0.7968,0.7978,0.798,0.8015,0.8012,0.8052,0.805,0.8112,0.8104,0.8106,0.8105,0.8146,0.8143,0.8282,0.83,0.8176,0.8177,0.8178,0,0.784,0.7875,0.7892,0.7912,0.7922,0.7955,0.7975,0.7966,0.7987,0.801,0.8038,0.8071,0.8097,0.8154,0.8159,0.8189,0.8182,0.8229,0.8187,0.8189,0.8184,0.8182,0.8186,0.8238,0.8239,0.824,0.8241,0,0.7952,0.7948,0.7977,0.8005,0.8028,0.805,0.807,0.8088,0.8081,0.8105,0.8141,0.8161,0.8201,0.8234,0.8262,0.8272,0.8256,0.8254,0.8265,0.827,0.827,0.8271,0.813,0.8251,0.825,0.8249,0.8249,0.8249,0.8033,0.8064,0.808,0.8112,0.8125,0.8144,0.8173,0.8177,0.8206,0.8237,0.823,0.827,0.8287,0.8323,0.8335,0.8366,0.8349,0.8365,0.837,0.8374,0.8379,0.8264,0.8371,0.837,0.837,0.837,0.837,0,0.8145,0.8153,0.8183,0.8211,0.8236,0.8217,0.8238,0.826,0.8295,0.8312,0.8337,0.8378,0.8409,0.8416,0.8446,0.8469,0.8463,0.8478,0.8477,0.8479,0.8392,0.8379,0.8483,0.8483,0.8483,0.8483,0.8483,0.8483,0.8206,0.8256,0.8254,0.8311,0.8319,0.8358,0.8371,0.8388,0.8401,0.8446,0.8472,0.8476,0.8489,0.8519,0.8548,0.8549,0.8561,0.8579,0.8578,0.8496,0.8485,0.8474,0.8463,0.8582,0.8582,0.8662,0.8663,0.8663]}]]